| time (UTC) | temp C | wind direction | speed KPH | gust KPH | rain 1hr cm | rain 24hr cm | rain mn cm | humidity % | barometer mb |
| 20260510214505 | 16 | 163 | 0.0 | 1.6 | 0.00 | 0.00 | 0.00 | 28 | 1005.7 |
| 20260510214004 | 16 | 295 | 6.4 | 9.7 | 0.00 | 0.00 | 0.00 | 28 | 1005.7 |
| 20260510213504 | 16 | 296 | 3.2 | 8.0 | 0.00 | 0.00 | 0.00 | 28 | 1005.7 |
| 20260510213005 | 16 | 266 | 4.8 | 4.8 | 0.00 | 0.00 | 0.00 | 29 | 1005.6 |
| 20260510212505 | 15 | 235 | 4.8 | 4.8 | 0.00 | 0.00 | 0.00 | 30 | 1005.2 |
| 20260510212004 | 16 | 221 | 4.8 | 8.0 | 0.00 | 0.00 | 0.00 | 28 | 1005.3 |
| 20260510211504 | 17 | 210 | 3.2 | 8.0 | 0.00 | 0.00 | 0.00 | 27 | 1005.4 |
| 20260510211005 | 17 | 251 | 4.8 | 4.8 | 0.00 | 0.00 | 0.00 | 28 | 1005.3 |
| 20260510210505 | 16 | 215 | 1.6 | 1.6 | 0.00 | 0.00 | 0.00 | 27 | 1005.0 |
| 20260510205504 | 16 | 326 | 3.2 | 4.8 | 0.00 | 0.00 | 0.00 | 28 | 1005.2 |
| 20260510205005 | 16 | 297 | 4.8 | 8.0 | 0.00 | 0.00 | 0.00 | 28 | 1004.9 |
| 20260510204504 | 17 | 322 | 9.7 | 12.9 | 0.00 | 0.00 | 0.00 | 27 | 1004.8 |
| 20260510203504 | 17 | 274 | 4.8 | 8.0 | 0.00 | 0.00 | 0.00 | 29 | 1004.8 |
| 20260510202005 | 15 | 142 | 1.6 | 1.6 | 0.00 | 0.00 | 0.00 | 28 | 1005.0 |
| 20260510201504 | 15 | 238 | 4.8 | 4.8 | 0.00 | 0.00 | 0.00 | 29 | 1005.1 |
| 20260510201005 | 16 | 231 | 3.2 | 4.8 | 0.00 | 0.00 | 0.00 | 28 | 1005.2 |
| 20260510200505 | 17 | 275 | 3.2 | 4.8 | 0.00 | 0.00 | 0.00 | 28 | 1005.2 |
| 20260510200004 | 17 | 235 | 1.6 | 3.2 | 0.00 | 0.00 | 0.00 | 28 | 1005.1 |
| 20260510195004 | 16 | 142 | 3.2 | 3.2 | 0.00 | 0.00 | 0.00 | 28 | 1005.3 |
| 20260510193005 | 16 | 328 | 1.6 | 3.2 | 0.00 | 0.00 | 0.00 | 27 | 1005.2 |
| 20260510192005 | 16 | 266 | 6.4 | 8.0 | 0.00 | 0.00 | 0.00 | 27 | 1005.4 |
| 20260510191505 | 15 | 8 | 1.6 | 3.2 | 0.00 | 0.00 | 0.00 | 27 | 1005.2 |
| 20260510191005 | 15 | 8 | 3.2 | 3.2 | 0.00 | 0.00 | 0.00 | 29 | 1005.3 |
| 20260510190504 | 16 | 244 | 12.9 | 16.1 | 0.00 | 0.00 | 0.00 | 27 | 1005.4 |
| 20260510190005 | 16 | 254 | 6.4 | 9.7 | 0.00 | 0.00 | 0.00 | 27 | 1005.2 |
| 20260510185504 | 16 | 280 | 4.8 | 8.0 | 0.00 | 0.00 | 0.00 | 30 | 1005.4 |
| 20260510185005 | 15 | 335 | 8.0 | 9.7 | 0.00 | 0.00 | 0.00 | 28 | 1005.3 |
| 20260510184505 | 16 | 295 | 4.8 | 8.0 | 0.00 | 0.00 | 0.00 | 28 | 1005.4 |
| 20260510184004 | 15 | 326 | 6.4 | 9.7 | 0.00 | 0.00 | 0.00 | 28 | 1005.3 |
| 20260510183504 | 15 | 241 | 4.8 | 9.7 | 0.00 | 0.00 | 0.00 | 27 | 1005.2 |
| 20260510183005 | 15 | 261 | 11.3 | 14.5 | 0.00 | 0.00 | 0.00 | 27 | 1005.1 |
| 20260510182505 | 15 | 257 | 6.4 | 8.0 | 0.00 | 0.00 | 0.00 | 26 | 1005.2 |
| 20260510182004 | 15 | 282 | 6.4 | 8.0 | 0.00 | 0.00 | 0.00 | 28 | 1004.9 |
| 20260510181004 | 15 | 279 | 4.8 | 8.0 | 0.00 | 0.00 | 0.00 | 28 | 1005.3 |
| 20260510180005 | 15 | 275 | 4.8 | 8.0 | 0.00 | 0.00 | 0.00 | 28 | 1005.1 |
| 20260510175505 | 15 | 67 | 1.6 | 1.6 | 0.00 | 0.00 | 0.00 | 29 | 1005.0 |
| 20260510174504 | 15 | 227 | 1.6 | 3.2 | 0.00 | 0.00 | 0.00 | 27 | 1005.1 |
| 20260510174004 | 15 | 209 | 6.4 | 9.7 | 0.00 | 0.00 | 0.00 | 28 | 1005.0 |
| 20260510173504 | 15 | 205 | 1.6 | 3.2 | 0.00 | 0.00 | 0.00 | 28 | 1004.9 |
| 20260510173005 | 14 | 287 | 6.4 | 8.0 | 0.00 | 0.00 | 0.00 | 28 | 1004.9 |
| 20260510172504 | 15 | 293 | 3.2 | 3.2 | 0.00 | 0.00 | 0.00 | 29 | 1005.0 |
| 20260510172004 | 14 | 254 | 4.8 | 4.8 | 0.00 | 0.00 | 0.00 | 30 | 1005.0 |
| 20260510171505 | 14 | 267 | 1.6 | 1.6 | 0.00 | 0.00 | 0.00 | 29 | 1004.9 |
| 20260510170504 | 14 | 24 | 4.8 | 8.0 | 0.00 | 0.00 | 0.00 | 28 | 1005.2 |
| 20260510170005 | 14 | 293 | 11.3 | 12.9 | 0.00 | 0.00 | 0.00 | 27 | 1005.0 |
| 20260510165505 | 14 | 317 | 6.4 | 9.7 | 0.00 | 0.00 | 0.00 | 28 | 1005.3 |
| 20260510165005 | 15 | 228 | 3.2 | 4.8 | 0.00 | 0.00 | 0.00 | 27 | 1005.0 |
| 20260510164504 | 15 | 291 | 4.8 | 9.7 | 0.00 | 0.00 | 0.00 | 29 | 1005.1 |
| 20260510164004 | 14 | 351 | 3.2 | 4.8 | 0.00 | 0.00 | 0.00 | 28 | 1005.0 |
| 20260510163505 | 14 | 289 | 6.4 | 9.7 | 0.00 | 0.00 | 0.00 | 30 | 1004.9 |
| 20260510163004 | 15 | 334 | 3.2 | 3.2 | 0.00 | 0.00 | 0.00 | 30 | 1005.0 |
| 20260510162504 | 14 | 55 | 3.2 | 3.2 | 0.00 | 0.00 | 0.00 | 30 | 1005.0 |
| 20260510162005 | 13 | 287 | 6.4 | 8.0 | 0.00 | 0.00 | 0.00 | 29 | 1005.0 |
| 20260510161505 | 14 | 312 | 4.8 | 4.8 | 0.00 | 0.00 | 0.00 | 32 | 1004.7 |
| 20260510161004 | 13 | 332 | 4.8 | 4.8 | 0.00 | 0.00 | 0.00 | 32 | 1004.9 |
| 20260510160505 | 13 | 278 | 8.0 | 9.7 | 0.00 | 0.00 | 0.00 | 32 | 1004.7 |
| 20260510160004 | 13 | 241 | 3.2 | 4.8 | 0.00 | 0.00 | 0.00 | 32 | 1004.8 |
| 20260510155504 | 13 | 315 | 3.2 | 3.2 | 0.00 | 0.00 | 0.00 | 33 | 1004.8 |
| 20260510155004 | 13 | 300 | 9.7 | 11.3 | 0.00 | 0.00 | 0.00 | 30 | 1004.8 |
| 20260510154505 | 13 | 240 | 1.6 | 3.2 | 0.00 | 0.00 | 0.00 | 31 | 1004.7 |
| 20260510154004 | 13 | 289 | 6.4 | 8.0 | 0.00 | 0.00 | 0.00 | 33 | 1004.7 |
| 20260510153504 | 13 | 225 | 3.2 | 3.2 | 0.00 | 0.00 | 0.00 | 33 | 1004.6 |
| 20260510152504 | 13 | 290 | 1.6 | 3.2 | 0.00 | 0.00 | 0.00 | 35 | 1004.3 |
| 20260510152004 | 13 | 351 | 3.2 | 4.8 | 0.00 | 0.00 | 0.00 | 35 | 1004.3 |
| 20260510151005 | 13 | 264 | 1.6 | 3.2 | 0.00 | 0.00 | 0.00 | 34 | 1004.4 |
| 20260510150505 | 12 | 209 | 3.2 | 3.2 | 0.00 | 0.00 | 0.00 | 39 | 1004.2 |
| 20260510145504 | 12 | 39 | 3.2 | 3.2 | 0.00 | 0.00 | 0.00 | 38 | 1004.2 |
| 20260510145005 | 13 | 295 | 4.8 | 4.8 | 0.00 | 0.00 | 0.00 | 38 | 1004.1 |
| 20260510144505 | 13 | 220 | 3.2 | 3.2 | 0.00 | 0.00 | 0.00 | 40 | 1004.0 |
| 20260510144004 | 13 | 113 | 1.6 | 1.6 | 0.00 | 0.00 | 0.00 | 41 | 1004.2 |
| 20260510143504 | 12 | 82 | 1.6 | 1.6 | 0.00 | 0.00 | 0.00 | 40 | 1004.2 |
| 20260510143005 | 12 | 297 | 3.2 | 3.2 | 0.00 | 0.00 | 0.00 | 40 | 1004.1 |
| 20260510142504 | 12 | 86 | 0.0 | 0.0 | 0.00 | 0.00 | 0.00 | 41 | 1004.0 |
| 20260510142005 | 11 | 331 | 3.2 | 3.2 | 0.00 | 0.00 | 0.00 | 41 | 1004.2 |
| 20260510141005 | 11 | 344 | 4.8 | 4.8 | 0.00 | 0.00 | 0.00 | 41 | 1004.1 |
| 20260510140504 | 12 | 283 | 3.2 | 3.2 | 0.00 | 0.00 | 0.00 | 44 | 1004.1 |
| 20260510140005 | 11 | 134 | 1.6 | 1.6 | 0.00 | 0.00 | 0.00 | 43 | 1003.9 |
| 20260510135504 | 11 | 195 | 1.6 | 3.2 | 0.00 | 0.00 | 0.00 | 44 | 1004.0 |
| 20260510135006 | 11 | 269 | 1.6 | 1.6 | 0.00 | 0.00 | 0.00 | 44 | 1003.9 |
| 20260510134505 | 11 | 120 | 3.2 | 3.2 | 0.00 | 0.00 | 0.00 | 45 | 1003.9 |
| 20260510133504 | 11 | 179 | 0.0 | 0.0 | 0.00 | 0.00 | 0.00 | 48 | 1004.0 |
| 20260510133004 | 10 | 266 | 3.2 | 3.2 | 0.00 | 0.00 | 0.00 | 48 | 1003.8 |
| 20260510132005 | 10 | 6 | 3.2 | 3.2 | 0.00 | 0.00 | 0.00 | 47 | 1003.6 |
| 20260510131504 | 10 | 275 | 1.6 | 3.2 | 0.00 | 0.00 | 0.00 | 47 | 1003.6 |
| 20260510131005 | 10 | 37 | 1.6 | 3.2 | 0.00 | 0.00 | 0.00 | 48 | 1003.6 |
| 20260510130504 | 10 | 146 | 1.6 | 1.6 | 0.00 | 0.00 | 0.00 | 50 | 1003.6 |
| 20260510125004 | 9 | 276 | 1.6 | 3.2 | 0.00 | 0.00 | 0.00 | 55 | 1003.3 |
| 20260510124504 | 9 | 298 | 1.6 | 3.2 | 0.00 | 0.00 | 0.00 | 54 | 1003.4 |
| 20260510124005 | 9 | 306 | 3.2 | 3.2 | 0.00 | 0.00 | 0.00 | 54 | 1003.2 |
| 20260510123504 | 9 | 77 | 1.6 | 3.2 | 0.00 | 0.00 | 0.00 | 55 | 1003.1 |
| 20260510123005 | 9 | 181 | 1.6 | 1.6 | 0.00 | 0.00 | 0.00 | 57 | 1003.0 |
| 20260510122505 | 8 | 333 | 3.2 | 3.2 | 0.00 | 0.00 | 0.00 | 58 | 1003.2 |
| 20260510122005 | 8 | 285 | 3.2 | 3.2 | 0.00 | 0.00 | 0.00 | 58 | 1003.3 |
| 20260510121504 | 8 | 321 | 3.2 | 3.2 | 0.00 | 0.00 | 0.00 | 60 | 1002.8 |
| 20260510120505 | 7 | 245 | 1.6 | 3.2 | 0.00 | 0.00 | 0.00 | 62 | 1002.9 |
| 20260510115504 | 7 | 278 | 4.8 | 8.0 | 0.00 | 0.00 | 0.00 | 62 | 1002.8 |
| 20260510115005 | 7 | 253 | 3.2 | 8.0 | 0.00 | 0.00 | 0.00 | 64 | 1003.0 |
| 20260510114504 | 7 | 271 | 4.8 | 4.8 | 0.00 | 0.00 | 0.00 | 64 | 1002.7 |
| 20260510114004 | 7 | 297 | 4.8 | 4.8 | 0.00 | 0.00 | 0.00 | 66 | 1002.8 |
| 20260510113004 | 7 | 276 | 4.8 | 4.8 | 0.00 | 0.00 | 0.00 | 68 | 1002.5 |
| 20260510112505 | 7 | 204 | 1.6 | 3.2 | 0.00 | 0.00 | 0.00 | 69 | 1002.3 |
| 20260510112005 | 7 | 195 | 1.6 | 1.6 | 0.00 | 0.00 | 0.00 | 70 | 1002.3 |
| 20260510111004 | 6 | 183 | 0.0 | 0.0 | 0.00 | 0.00 | 0.00 | 74 | 1002.0 |
| 20260510110504 | 6 | 190 | 0.0 | 0.0 | 0.00 | 0.00 | 0.00 | 75 | 1002.1 |
| 20260510110005 | 6 | 287 | 0.0 | 0.0 | 0.00 | 0.00 | 0.00 | 77 | 1001.9 |
| 20260510105505 | 6 | 336 | 0.0 | 0.0 | 0.00 | 0.00 | 0.00 | 80 | 1001.9 |
| 20260510105004 | 5 | 90 | 0.0 | 0.0 | 0.00 | 0.00 | 0.00 | 82 | 1001.9 |
| 20260510104505 | 5 | 89 | 0.0 | 0.0 | 0.00 | 0.00 | 0.00 | 83 | 1001.9 |
| 20260510104004 | 5 | 89 | 0.0 | 0.0 | 0.00 | 0.00 | 0.00 | 82 | 1001.6 |
| 20260510103504 | 5 | 89 | 0.0 | 0.0 | 0.00 | 0.00 | 0.00 | 82 | 1001.7 |
| 20260510103005 | 5 | 89 | 0.0 | 0.0 | 0.00 | 0.00 | 0.00 | 82 | 1001.4 |
| 20260510102504 | 5 | 89 | 0.0 | 0.0 | 0.00 | 0.00 | 0.00 | 81 | 1001.4 |
| 20260510102005 | 5 | 89 | 0.0 | 0.0 | 0.00 | 0.00 | 0.00 | 81 | 1001.4 |
| 20260510101504 | 5 | 89 | 0.0 | 0.0 | 0.00 | 0.00 | 0.00 | 80 | 1001.3 |
| 20260510101004 | 6 | 89 | 0.0 | 0.0 | 0.00 | 0.00 | 0.00 | 80 | 1001.2 |
| 20260510100504 | 5 | 89 | 0.0 | 0.0 | 0.00 | 0.00 | 0.00 | 80 | 1001.3 |
| 20260510100005 | 5 | 89 | 0.0 | 0.0 | 0.00 | 0.00 | 0.00 | 79 | 1001.5 |
| 20260510095004 | 6 | 89 | 0.0 | 0.0 | 0.00 | 0.00 | 0.00 | 79 | 1001.2 |
| 20260510094505 | 6 | 89 | 0.0 | 0.0 | 0.00 | 0.00 | 0.00 | 78 | 1001.1 |
| 20260510094005 | 6 | 89 | 0.0 | 0.0 | 0.00 | 0.00 | 0.00 | 78 | 1001.2 |
| 20260510093504 | 6 | 89 | 0.0 | 0.0 | 0.00 | 0.00 | 0.00 | 77 | 1001.0 |
| 20260510092504 | 6 | 89 | 0.0 | 0.0 | 0.00 | 0.00 | 0.00 | 76 | 1000.7 |
| 20260510092005 | 6 | 89 | 0.0 | 0.0 | 0.00 | 0.00 | 0.00 | 75 | 1000.8 |
| 20260510091004 | 6 | 89 | 0.0 | 0.0 | 0.00 | 0.00 | 0.00 | 75 | 1000.8 |
| 20260510090004 | 7 | 89 | 0.0 | 0.0 | 0.00 | 0.00 | 0.00 | 74 | 1000.3 |
| 20260510085505 | 7 | 89 | 0.0 | 0.0 | 0.00 | 0.00 | 0.00 | 73 | 1000.5 |
| 20260510085004 | 7 | 88 | 0.0 | 0.0 | 0.00 | 0.00 | 0.00 | 73 | 1000.1 |
| 20260510084005 | 7 | 94 | 0.0 | 0.0 | 0.00 | 0.00 | 0.00 | 72 | 1000.1 |
| 20260510083505 | 7 | 93 | 0.0 | 0.0 | 0.00 | 0.00 | 0.00 | 72 | 999.9 |
| 20260510083005 | 7 | 98 | 0.0 | 0.0 | 0.00 | 0.00 | 0.00 | 72 | 999.6 |
| 20260510082504 | 7 | 97 | 0.0 | 0.0 | 0.00 | 0.00 | 0.00 | 71 | 999.5 |
| 20260510081504 | 8 | 110 | 0.0 | 0.0 | 0.00 | 0.00 | 0.00 | 71 | 999.3 |
| 20260510081005 | 8 | 97 | 1.6 | 1.6 | 0.00 | 0.00 | 0.00 | 71 | 999.3 |
| 20260510080504 | 8 | 121 | 0.0 | 0.0 | 0.00 | 0.00 | 0.00 | 72 | 999.2 |
| 20260510075504 | 8 | 108 | 0.0 | 0.0 | 0.00 | 0.00 | 0.00 | 71 | 998.9 |
| 20260510075004 | 8 | 73 | 1.6 | 1.6 | 0.00 | 0.00 | 0.00 | 71 | 998.8 |
| 20260510074505 | 8 | 115 | 0.0 | 0.0 | 0.00 | 0.00 | 0.00 | 70 | 998.8 |
| 20260510074004 | 9 | 118 | 1.6 | 1.6 | 0.00 | 0.00 | 0.00 | 69 | 998.4 |
| 20260510073004 | 9 | 74 | 1.6 | 3.2 | 0.00 | 0.00 | 0.00 | 66 | 998.1 |
| 20260510072505 | 10 | 110 | 0.0 | 1.6 | 0.00 | 0.00 | 0.00 | 63 | 998.0 |
| 20260510072004 | 10 | 110 | 0.0 | 0.0 | 0.00 | 0.00 | 0.00 | 61 | 998.1 |
| 20260510071505 | 10 | 142 | 0.0 | 0.0 | 0.00 | 0.00 | 0.00 | 60 | 997.9 |
| 20260510070504 | 10 | 19 | 1.6 | 1.6 | 0.00 | 0.00 | 0.00 | 61 | 997.8 |
| 20260510070005 | 10 | 178 | 0.0 | 0.0 | 0.00 | 0.00 | 0.00 | 62 | 997.6 |
| 20260510065504 | 10 | 195 | 0.0 | 1.6 | 0.00 | 0.00 | 0.00 | 62 | 997.8 |
| 20260510065004 | 10 | 172 | 0.0 | 0.0 | 0.00 | 0.00 | 0.00 | 62 | 997.7 |
| 20260510064504 | 10 | 176 | 1.6 | 1.6 | 0.00 | 0.00 | 0.00 | 61 | 997.7 |
| 20260510064005 | 10 | 237 | 3.2 | 3.2 | 0.00 | 0.00 | 0.00 | 61 | 997.6 |
| 20260510063504 | 10 | 151 | 0.0 | 0.0 | 0.00 | 0.00 | 0.00 | 61 | 997.6 |
| 20260510063004 | 10 | 66 | 0.0 | 0.0 | 0.00 | 0.00 | 0.00 | 61 | 997.5 |
| 20260510062505 | 10 | 181 | 1.6 | 1.6 | 0.00 | 0.00 | 0.00 | 60 | 997.6 |
| 20260510062004 | 10 | 185 | 0.0 | 0.0 | 0.00 | 0.00 | 0.00 | 60 | 997.5 |
| 20260510061505 | 10 | 123 | 0.0 | 0.0 | 0.00 | 0.00 | 0.00 | 60 | 997.6 |
| 20260510060504 | 10 | 170 | 1.6 | 1.6 | 0.00 | 0.00 | 0.00 | 59 | 997.4 |
| 20260510060006 | 11 | 102 | 0.0 | 0.0 | 0.00 | 0.00 | 0.00 | 59 | 997.1 |
| 20260510055504 | 11 | 100 | 0.0 | 1.6 | 0.00 | 0.00 | 0.00 | 59 | 997.4 |
| 20260510054504 | 11 | 171 | 0.0 | 0.0 | 0.00 | 0.00 | 0.00 | 58 | 997.3 |
| 20260510054005 | 11 | 94 | 1.6 | 1.6 | 0.00 | 0.00 | 0.00 | 58 | 997.1 |
| 20260510053504 | 11 | 64 | 0.0 | 0.0 | 0.00 | 0.00 | 0.00 | 59 | 996.9 |
| 20260510053005 | 11 | 109 | 0.0 | 0.0 | 0.00 | 0.00 | 0.00 | 61 | 997.1 |
| 20260510052504 | 11 | 60 | 0.0 | 0.0 | 0.00 | 0.00 | 0.00 | 61 | 997.1 |
| 20260510051505 | 11 | 101 | 0.0 | 0.0 | 0.00 | 0.00 | 0.00 | 59 | 996.7 |
| 20260510051004 | 11 | 117 | 0.0 | 0.0 | 0.00 | 0.00 | 0.00 | 59 | 996.6 |
| 20260510050505 | 12 | 123 | 1.6 | 1.6 | 0.00 | 0.00 | 0.00 | 59 | 996.6 |
| 20260510050004 | 12 | 68 | 1.6 | 1.6 | 0.00 | 0.00 | 0.00 | 59 | 996.4 |
| 20260510045505 | 12 | 70 | 0.0 | 0.0 | 0.00 | 0.00 | 0.00 | 58 | 996.2 |
| 20260510045005 | 12 | 127 | 1.6 | 1.6 | 0.00 | 0.00 | 0.00 | 59 | 996.4 |
| 20260510044504 | 12 | 117 | 0.0 | 1.6 | 0.00 | 0.00 | 0.00 | 59 | 996.1 |
| 20260510044004 | 12 | 103 | 0.0 | 0.0 | 0.00 | 0.00 | 0.00 | 59 | 996.0 |
| 20260510043505 | 12 | 114 | 0.0 | 0.0 | 0.00 | 0.00 | 0.00 | 59 | 996.0 |
| 20260510043005 | 12 | 106 | 0.0 | 0.0 | 0.00 | 0.00 | 0.00 | 58 | 996.1 |
| 20260510042504 | 12 | 89 | 0.0 | 0.0 | 0.00 | 0.00 | 0.00 | 58 | 995.8 |
| 20260510042005 | 12 | 92 | 1.6 | 1.6 | 0.00 | 0.00 | 0.00 | 58 | 995.8 |
| 20260510041505 | 13 | 124 | 0.0 | 0.0 | 0.00 | 0.00 | 0.00 | 58 | 995.9 |
| 20260510041004 | 13 | 110 | 1.6 | 1.6 | 0.00 | 0.00 | 0.00 | 57 | 995.9 |
| 20260510040504 | 13 | 115 | 0.0 | 0.0 | 0.00 | 0.00 | 0.00 | 55 | 995.7 |
| 20260510035505 | 15 | 351 | 0.0 | 1.6 | 0.00 | 0.00 | 0.25 | 48 | 995.4 |
| 20260510035004 | 15 | 12 | 4.8 | 8.0 | 0.00 | 0.00 | 0.25 | 48 | 995.2 |
| 20260510034504 | 15 | 310 | 4.8 | 4.8 | 0.00 | 0.00 | 0.25 | 47 | 995.3 |
| 20260510034004 | 15 | 252 | 3.2 | 3.2 | 0.00 | 0.00 | 0.25 | 47 | 995.1 |
| 20260510033505 | 15 | 308 | 4.8 | 4.8 | 0.00 | 0.00 | 0.25 | 47 | 995.2 |
| 20260510033005 | 15 | 264 | 3.2 | 4.8 | 0.00 | 0.00 | 0.25 | 46 | 994.9 |
| 20260510032504 | 15 | 315 | 9.7 | 11.3 | 0.00 | 0.00 | 0.25 | 46 | 994.9 |
| 20260510032004 | 15 | 15 | 1.6 | 1.6 | 0.00 | 0.00 | 0.25 | 46 | 994.9 |
| 20260510031505 | 15 | 287 | 3.2 | 3.2 | 0.00 | 0.00 | 0.25 | 46 | 994.8 |
| 20260510030504 | 15 | 317 | 6.4 | 9.7 | 0.00 | 0.00 | 0.25 | 45 | 994.6 |
| 20260510030005 | 16 | 274 | 4.8 | 8.0 | 0.00 | 0.00 | 0.25 | 45 | 994.4 |
| 20260510025004 | 16 | 245 | 4.8 | 4.8 | 0.00 | 0.00 | 0.25 | 45 | 994.1 |
| 20260510024505 | 16 | 270 | 6.4 | 9.7 | 0.00 | 0.00 | 0.25 | 46 | 994.3 |
| 20260510024004 | 16 | 247 | 4.8 | 8.0 | 0.00 | 0.00 | 0.25 | 47 | 994.2 |
| 20260510023004 | 16 | 343 | 4.8 | 4.8 | 0.00 | 0.00 | 0.25 | 47 | 993.9 |
| 20260510022505 | 16 | 265 | 1.6 | 3.2 | 0.00 | 0.00 | 0.25 | 49 | 993.4 |
| 20260510022004 | 17 | 255 | 4.8 | 4.8 | 0.00 | 0.00 | 0.25 | 48 | 993.5 |
| 20260510021504 | 17 | 261 | 4.8 | 8.0 | 0.00 | 0.00 | 0.25 | 48 | 993.3 |
| 20260510020505 | 17 | 305 | 3.2 | 4.8 | 0.00 | 0.00 | 0.25 | 48 | 993.0 |
| 20260510020005 | 17 | 289 | 1.6 | 3.2 | 0.00 | 0.00 | 0.25 | 48 | 992.8 |
| 20260510015504 | 17 | 241 | 1.6 | 1.6 | 0.00 | 0.00 | 0.25 | 48 | 992.9 |
| 20260510015005 | 17 | 271 | 3.2 | 3.2 | 0.00 | 0.00 | 0.25 | 48 | 992.7 |
| 20260510014504 | 17 | 246 | 0.0 | 0.0 | 0.00 | 0.00 | 0.25 | 48 | 992.5 |
| 20260510014004 | 17 | 246 | 0.0 | 0.0 | 0.00 | 0.00 | 0.25 | 48 | 992.4 |
| 20260510013004 | 17 | 217 | 0.0 | 1.6 | 0.00 | 0.00 | 0.25 | 47 | 992.2 |
| 20260510012505 | 17 | 216 | 0.0 | 0.0 | 0.00 | 0.00 | 0.25 | 47 | 992.1 |
| 20260510012005 | 17 | 216 | 0.0 | 0.0 | 0.00 | 0.00 | 0.25 | 46 | 991.8 |
| 20260510011504 | 17 | 212 | 0.0 | 0.0 | 0.00 | 0.00 | 0.25 | 45 | 991.8 |
| 20260510011005 | 17 | 206 | 0.0 | 1.6 | 0.00 | 0.00 | 0.25 | 45 | 991.8 |
| 20260510010504 | 18 | 259 | 0.0 | 0.0 | 0.00 | 0.00 | 0.25 | 44 | 991.6 |
| 20260510010004 | 18 | 187 | 0.0 | 0.0 | 0.00 | 0.00 | 0.25 | 43 | 991.4 |
| 20260510005505 | 18 | 185 | 0.0 | 1.6 | 0.00 | 0.00 | 0.25 | 43 | 991.5 |
| 20260510005004 | 18 | 227 | 1.6 | 3.2 | 0.00 | 0.00 | 0.25 | 43 | 991.5 |
| 20260510004504 | 18 | 228 | 1.6 | 1.6 | 0.00 | 0.00 | 0.25 | 42 | 991.4 |
| 20260510004005 | 18 | 192 | 1.6 | 1.6 | 0.00 | 0.00 | 0.25 | 42 | 991.5 |
| 20260510003504 | 18 | 225 | 3.2 | 3.2 | 0.00 | 0.00 | 0.25 | 41 | 991.5 |
| 20260510002505 | 18 | 240 | 3.2 | 3.2 | 0.00 | 0.00 | 0.25 | 40 | 991.4 |
| 20260510002005 | 19 | 165 | 3.2 | 3.2 | 0.00 | 0.00 | 0.25 | 40 | 991.5 |
| 20260510001504 | 19 | 298 | 4.8 | 4.8 | 0.00 | 0.00 | 0.25 | 39 | 991.5 |
| 20260510001005 | 19 | 176 | 1.6 | 1.6 | 0.00 | 0.00 | 0.25 | 39 | 991.3 |
| 20260510000505 | 20 | 295 | 1.6 | 3.2 | 0.00 | 0.00 | 0.25 | 39 | 991.3 |
| 20260510000004 | 20 | 224 | 3.2 | 3.2 | 0.00 | 0.00 | 0.25 | 40 | 991.1 |
| 20260509235505 | 20 | 186 | 0.0 | 1.6 | 0.00 | 0.00 | 0.25 | 40 | 991.3 |
| 20260509235005 | 20 | 193 | 1.6 | 3.2 | 0.00 | 0.00 | 0.25 | 39 | 991.3 |
| 20260509234504 | 20 | 202 | 1.6 | 3.2 | 0.00 | 0.00 | 0.25 | 39 | 991.4 |
| 20260509234004 | 20 | 217 | 3.2 | 3.2 | 0.00 | 0.00 | 0.25 | 37 | 991.0 |
| 20260509233505 | 20 | 312 | 4.8 | 4.8 | 0.00 | 0.00 | 0.25 | 37 | 991.2 |
| 20260509233004 | 20 | 253 | 3.2 | 3.2 | 0.00 | 0.00 | 0.25 | 38 | 991.2 |
| 20260509232504 | 20 | 231 | 1.6 | 3.2 | 0.00 | 0.00 | 0.25 | 38 | 991.3 |
| 20260509232004 | 20 | 283 | 11.3 | 12.9 | 0.00 | 0.00 | 0.25 | 37 | 991.3 |
| 20260509231505 | 20 | 335 | 9.7 | 12.9 | 0.00 | 0.00 | 0.25 | 37 | 991.3 |
| 20260509231004 | 20 | 303 | 8.0 | 11.3 | 0.00 | 0.00 | 0.25 | 36 | 991.3 |
| 20260509230004 | 20 | 303 | 12.9 | 16.1 | 0.00 | 0.00 | 0.25 | 35 | 991.3 |
| 20260509225504 | 21 | 288 | 4.8 | 8.0 | 0.00 | 0.00 | 0.25 | 36 | 991.1 |
| 20260509224005 | 21 | 335 | 6.4 | 9.7 | 0.00 | 0.00 | 0.25 | 35 | 991.0 |
| 20260509223504 | 21 | 198 | 8.0 | 11.3 | 0.00 | 0.00 | 0.25 | 35 | 990.9 |
| 20260509223004 | 21 | 229 | 4.8 | 8.0 | 0.00 | 0.00 | 0.25 | 35 | 990.7 |
| 20260509222504 | 21 | 222 | 6.4 | 9.7 | 0.00 | 0.00 | 0.25 | 36 | 990.6 |
| 20260509222004 | 21 | 130 | 6.4 | 9.7 | 0.00 | 0.00 | 0.25 | 37 | 990.4 |
| 20260509221006 | 21 | 277 | 11.3 | 14.5 | 0.00 | 0.00 | 0.25 | 37 | 990.4 |
| 20260509220504 | 21 | 307 | 8.0 | 11.3 | 0.00 | 0.00 | 0.25 | 36 | 990.2 |
| 20260509215505 | 21 | 241 | 8.0 | 12.9 | 0.00 | 0.00 | 0.25 | 36 | 990.4 |
| 20260509215005 | 21 | 142 | 1.6 | 1.6 | 0.00 | 0.00 | 0.25 | 39 | 990.4 |